Southwest Florida International Airport
KRSW : now visible

Airfield :











YOU CAN JOIN US ON...

 
LOGIN :

Register | Disclaimer

   EN    FR    IT 

 









Legend :    VFR   Marginal VFR   IFR   Intensive IFR   Very Intensive IFR
Visi :
Ceiling :
>= 8 km
>= 3000ft
5 to 8 km
1000 to 3000 ft
1500m to 5 km
500 to 1000 ft
800 to 1500m
200 to 500 ft
< 800m
< 200 ft
Symbols :   Thunderstorms  Fog  Heavy snow  Heavy precipitations  Wind > 20 kt






- Airport Elevation : 30 ft
- IATA code : RSW


KRSW - Southwest Florida International

CURRENT METAR :
  • 260553Z 25006KT 10SM FEW017 24/24 A2992 RMK AO2 SLP131 T02440239 10261 20244 58008

EXPIRED METARs :
  • 260453Z 24005KT 10SM CLR 24/23 A2995 RMK AO2 SLP138 T02440233 402940239
  • 260353Z 24003KT 10SM FEW016 25/24 A2996 RMK AO2 SLP143 T02500239

TAF KRSW
Valid from the 26 at 06:00 until the 27 at 06:00 UTC


260521Z 2606/2706 24004KT P6SM FEW015 SCT250
FM261000 VRB03KT 6SM BR VCFG FEW005
FM261400 28007KT P6SM SCT030 SCT250
FM261800 28010G17KT P6SM FEW040 SCT250
FM270100 VRB03KT P6SM FEW020 FEW250
KZMA FIR / North America



MET'MAP, your aeronautical weather chart ! - Copyright ORBIFLY December 2007 - Disclaimer

ORBIFLY MET'MAP TEAM :

Programming & Development : Alexandra Zaïnal
Concept & original design : Baudouin d'Aumeries
Assistance for programming : Marc-Olivier Méhu
Technical & hardware support : Manuel Goepfert

Contact : metmap@orbifly.com




SOURCES & CREDITS :

   NOAA       Earth
Advisory